Погода в Галичном

Россия / Хабаровский край     50°43′21″N   137°12′06″E
темп.,
°C
ветер,
м/с
пор.,
м/с
влажн.,
%
обл.,
%
осадки,
мм/ч
давл.,
гПа
погр.,
м
8 мая, сб
сб801:00+3ссз3970100 0.0 1001429
04:00+2ссз3871100 0.0 1000532
07:00+1ссз4979100 0.1 1000636
10:00+4ссз5869100 0.1 1001902
13:00+8ссз4655100 0.0 10001124
16:00+7ссв3562100 0.0 10011012
19:00+4с3692100 0.3 1004552
22:00+3ссз3797100 0.9 1005548
9 мая, вс
вс901:00+2ссз3797100 1.8 1006392
04:00+1ссз3898100 2.9 1007318
07:00+1ссз3798100 0.3 1007355
10:00+2ссз3897100 0.4 1008481
13:00+5ссз3784100 0.0 1008716
16:00+6с4777100 0.0 1007902
19:00+5с3980100 0.0 1008743
22:00+3ссз379199 0.0 1009223
10 мая, пн
пн1001:00+2ссз3893100 0.0 1010349
04:00+1ссз499397 0.0 1011495
07:000ссз5108789 0.0 1012517
10:00+5ссз586584 0.0 1012989
13:00+7ссз586091 0.0 10121118
16:00+8ссз4762100 0.0 10121182
19:00+6св257499 0.0 1014308
22:00+4ссв028496 0.0 1016100
11 мая, вт
вт1101:00+2ссв119262 0.0 101652
04:00+2с129290 0.0 101764
07:00+4ссв018391 0.0 1018233
10:00+8св016228 0.0 1018758
13:00+13ююв114536 0.0 10161427
16:00+14ю024189 0.0 10151762
19:00+12вюв1253100 0.0 1015114
22:00+10ююв1161100 0.0 101632
12 мая, ср
ср1201:00+8юв236999 0.0 101590
04:00+7юв237715 0.0 1015121
07:00+8ююв397454 0.0 1015354
10:00+13ю5105491 0.0 10141115
13:00+16ююз6943100 0.0 10121803
16:00+17ю5839100 0.0 10091968
19:00+14ююв3851100 0.0 1008521
22:00+12ююз41263100 0.0 1008976